SkyWest Cadet Program 2017-02-06T23:19:59+00:00

SkyWest Airlines Cadet Program

Skywest Airlines Axiom Aviation Cadet Program

It’s Official.

SkyWest Airlines and Axiom Aviation have partnered up to make the SkyWest Cadet Program available to you! Fulfill your dreams of becoming an airline pilot with Axiom Aviation today! Start your career at Axiom and get hired at SkyWest sooner. Check out the official letter below or click here.

Current METAR

KOGD 270053Z 34010KT 10SM CLR 22/M04 A3006 RMK AO2 SLP144 T02221039